Weather History for TJSJ - February, 2012

Change the Weather History Date:

Thursday, February 23, 2012

  Actual Average Record
Temperature  
Mean Temperature 81 °F 78 °F  
Max Temperature 86 °F 84 °F 89 °F (1964)
Min Temperature 75 °F 72 °F 64 °F (1956)
Degree Days  
Heating Degree Days 0 0  
Month to date heating degree days 0 0  
Since 1 July heating degree days 0 0  
Cooling Degree Days 16 13  
Month to date cooling degree days 291 299  
Year to date cooling degree days 679 690  
Growing Degree Days 30 (Base 50)    
Moisture  
Dew Point 70 °F    
Average Humidity 73    
Maximum Humidity 87    
Minimum Humidity 59    
Precipitation  
Precipitation 0.06 in 0.08 in 3.98 in (1918)
Month to date precipitation 1.77 2.02  
Year to date precipitation 5.50 5.78  
Snow  
Snow 0.00 in 0.00 in - ()
Month to date snowfall 0.0 0.0  
Since 1 July snowfall 0.0 0.0  
Snow Depth 0.00 in    
Sea Level Pressure  
Sea Level Pressure 30.04 in    
Wind  
Wind Speed 8 mph (ENE)    
Max Wind Speed 20 mph    
Max Gust Speed 24 mph    
Visibility 10 miles    
Events Rain    
T = Trace of Precipitation, MM = Missing Value Source: NWS Daily Summary

Daily Weather History Graph

Daily Weather History Graph

Search for Another Location

Airport or City:

Trip Planner

Search our weather history database for the weather conditions in past years. The results will help you decide how hot, cold, wet, or windy it might be!

Date:

Astronomy

Feb. 23, 2012 Rise Set
Actual Time 6:47 AM AST 6:27 PM AST
Civil Twilight 6:25 AM AST 6:49 PM AST
Nautical Twilight 5:59 AM AST 7:15 PM AST
Astronomical Twilight 5:34 AM AST 7:40 PM AST
Moon 7:34 AM AST (2/23) 8:02 PM AST (2/23)
Length of Visible Light 12h 24m
Length of Day
11h 40m
Waxing Crescent, 3% of the Moon is Illuminated
Feb 23
Waxing Crescent
Feb 29
First Quarter
Mar 8
Full
Mar 14
Last Quarter
Mar 22
New

Hourly Weather History & Observations

Time (AST) Temp. Heat Index Dew Point Humidity Pressure Visibility Wind Dir Wind Speed Gust Speed Precip Events Conditions
12:56 AM 77.0 °F - 71.1 °F 82% 30.03 in 10.0 mi Calm Calm - 0.00 in   Mostly Cloudy
1:56 AM 77.0 °F - 71.1 °F 82% 30.01 in 10.0 mi Calm Calm - 0.00 in   Scattered Clouds
2:56 AM 75.9 °F - 71.1 °F 85% 30.01 in 10.0 mi ESE 4.6 mph - 0.04 in   Scattered Clouds
3:56 AM 75.0 °F - 70.0 °F 84% 30.00 in 10.0 mi Calm Calm - N/A   Partly Cloudy
4:56 AM 75.0 °F - 69.1 °F 82% 30.00 in 10.0 mi Calm Calm - N/A   Scattered Clouds
5:56 AM 75.0 °F - 69.1 °F 82% 30.01 in 10.0 mi Calm Calm - 0.02 in   Scattered Clouds
6:56 AM 75.9 °F - 69.1 °F 79% 30.03 in 10.0 mi Calm Calm - 0.00 in   Scattered Clouds
7:56 AM 78.1 °F - 70.0 °F 76% 30.05 in 10.0 mi ESE 4.6 mph - N/A   Scattered Clouds
8:56 AM 80.1 °F 83.2 °F 70.0 °F 71% 30.08 in 10.0 mi East 6.9 mph - N/A   Scattered Clouds
9:56 AM 82.9 °F 87.0 °F 70.0 °F 65% 30.09 in 10.0 mi East 9.2 mph - N/A   Scattered Clouds
10:56 AM 84.0 °F 88.4 °F 70.0 °F 63% 30.09 in 10.0 mi East 10.4 mph - N/A   Scattered Clouds
11:56 AM 84.0 °F 89.0 °F 71.1 °F 65% 30.08 in 10.0 mi ENE 15.0 mph - N/A   Scattered Clouds
12:56 PM 84.9 °F 90.1 °F 71.1 °F 63% 30.06 in 10.0 mi ENE 16.1 mph - N/A   Partly Cloudy
1:56 PM 84.0 °F 89.0 °F 71.1 °F 65% 30.04 in 10.0 mi ENE 15.0 mph 24.2 mph N/A   Scattered Clouds
2:56 PM 84.0 °F 88.4 °F 70.0 °F 63% 30.02 in 10.0 mi ENE 17.3 mph 23.0 mph N/A   Scattered Clouds
3:56 PM 84.0 °F 87.0 °F 68.0 °F 58% 30.01 in 10.0 mi ENE 13.8 mph - N/A   Scattered Clouds
4:56 PM 82.0 °F 85.5 °F 69.1 °F 65% 30.01 in 10.0 mi ENE 15.0 mph - N/A   Partly Cloudy
5:56 PM 80.1 °F 82.9 °F 69.1 °F 69% 30.00 in 10.0 mi East 10.4 mph - N/A   Partly Cloudy
6:56 PM 78.1 °F - 70.0 °F 76% 30.01 in 10.0 mi East 9.2 mph - N/A   Partly Cloudy
7:56 PM 78.1 °F - 70.0 °F 76% 30.02 in 10.0 mi East 8.1 mph - N/A   Scattered Clouds
8:56 PM 79.0 °F - 70.0 °F 74% 30.04 in 10.0 mi NE 8.1 mph - N/A   Scattered Clouds
9:56 PM 79.0 °F - 70.0 °F 74% 30.06 in 10.0 mi ENE 10.4 mph - N/A   Scattered Clouds
10:56 PM 77.0 °F - 71.1 °F 82% 30.07 in 10.0 mi East 11.5 mph - 0.00 in Rain Light Rain
11:56 PM 75.9 °F - 70.0 °F 82% 30.06 in 10.0 mi East 6.9 mph - 0.00 in   Scattered Clouds